{"data":{"norad_id":60553,"intl_designator":"2024-149CP","name":"BRO-15","alt_names":[],"object_type":"PAYLOAD","status":"ACTIVE","operator":null,"country":"FR","launch_date":"2024-08-16","launch_site_code":"AFWTR","launch_vehicle":null,"mission":null,"orbit_class":"UNKNOWN","rcs_meters":null,"size_class":null,"mass_kg":null,"dimensions":null,"purposes":[],"wikipedia_slug":null,"has_3d_model":false,"image_url":null,"decayed_at":null,"tle_current":{"epoch":"2026-09-22T16:20:42.986976Z","epoch_age_seconds":100742,"freshness":"FRESH","line1":"1 60553U 24149CP  26265.68105309  .00000776  00000+0  73555-4 0  9990","line2":"2 60553  97.6725 339.1904 0009450 118.0166 242.2013 14.96349453114588","mean_motion":14.96349453,"eccentricity":0.000945,"inclination_deg":97.6725,"raan_deg":339.1904,"arg_perigee_deg":118.0166,"mean_anomaly_deg":242.2013,"bstar":7.3555e-5,"rev_number":11458,"period_min":96.234204992221,"perigee_km":571.6135971351,"apogee_km":584.76105010674,"semimajor_km":6956.3243236209,"source":"CELESTRAK","updated_at":"2026-09-23T09:00:20.698717Z"}}}